Pagrindinis puslapis
METAR-TAF:

METAR-TAF

Oro uostai :

Gaines County Airport

Seminole, Teksasas, Jungtinės Amerikos Valstijos

platuma: 32-40-31N, ilguma: 102-39-09W, Aukštis: 1010 m

Dabartinis oras

Ataskaita buvo paskelbta 15 minutes, ne 03:35 UTC
Vėjas 7 kt iš Pietryčių
Temperatūra 19°C
Drėgmė 56%
Slėgis 1024 hPa
Matomumas: 16.1 km
Giedras dangus

METAR: KGNC 140335Z AUTO 13007KT 10SM CLR 19/10 A3023 RMK AO2 T01880100

Laikas: 22:50 (03:50 UTC)


TAF: trūkstamas

Orai ataskaitas ir orų prognozės (METAR, TAF).

turimą stotys yra geltonos ir raudonos taškus žemėlapyje.

Perkelti pele per norėdami pamatyti stoties vardą.

Tada spustelėkite, norėdami matyti oro stebėjimo ir prognozės.

Norėdami pakeisti žemėlapį: spustelėkite ant žalios mygtukų su juodo kryžiaus žemyn,; žalią mygtuką su brūkšneliu, jei norite nutolinti; arba žalių rodyklių gretimoms žemėlapius.


METAR-TAF: